Date String (YYYY-MM-DD hh:mm:ss) UTC,Instrument flags,Ambient pressure (hPa),Sample flow (lpm),Bypass flow (lpm),Sample temperature (°C),Ambient temperature (°C),ASC tube jacket temperature (°C),LED temperature (°C),Box temperature (°C),Sample RH (%),Span deviation,Mass concentration (μg/m³),Mass concentration (μg/m³),Mass concentration (μg/m³)
DateTimeUTC,F1_M11,P_M11,Q1_M11,Q2_M11,T1_M11,T2_M11,T3_M11,T4_M11,T5_M11,U1_M11,ZSPAN_M11,X0_M11,X2_M11,X1_M11
2022-10-18 10:00:00,,0832.2,4.99,0.00,26.2,24.5,00.0,35.1,28.0,13.8,0001.8,0011.82,0006.06,0005.35
2022-10-18 10:01:00,,0832.3,5.00,0.00,26.2,24.5,00.0,35.1,28.0,13.8,0001.3,0011.77,0006.08,0005.34
2022-10-18 10:02:00,,0832.3,5.01,0.00,26.2,24.5,00.0,35.1,28.0,13.7,0001.9,0011.66,0006.07,0005.34
2022-10-18 10:03:00,,0832.2,5.00,0.00,26.2,24.5,00.0,35.1,28.0,13.7,0001.5,0010.95,0006.05,0005.33
2022-10-18 10:04:00,,0832.3,5.00,0.00,26.2,24.5,00.0,35.1,28.0,13.7,0000.0,0011.17,0006.10,0005.34
2022-10-18 10:05:00,,0832.3,5.00,0.00,26.2,24.5,00.0,35.1,28.0,13.7,0000.0,0011.34,0006.08,0005.32
2022-10-18 10:06:00,,0832.2,4.99,0.00,26.2,24.5,00.0,35.1,27.9,13.7,0000.0,0010.78,0006.13,0005.31
2022-10-18 10:07:00,,0832.3,5.00,0.00,26.2,24.5,00.0,35.1,27.9,13.6,0000.0,0011.01,0006.17,0005.29
2022-10-18 10:08:00,,0832.3,5.01,0.00,26.1,24.4,00.0,35.1,27.9,13.6,0000.0,0011.39,0006.15,0005.26
2022-10-18 10:09:00,,0832.3,5.01,0.00,26.1,24.4,00.0,35.1,27.9,13.5,0000.0,0011.78,0006.09,0005.23
2022-10-18 10:10:00,,0832.3,4.99,0.00,26.1,24.4,00.0,35.0,27.9,13.4,0000.0,0011.37,0006.01,0005.19
2022-10-18 10:11:00,,0832.3,4.99,0.00,26.1,24.4,00.0,35.0,27.9,13.4,0000.0,0011.25,0005.92,0005.12
2022-10-18 10:12:00,,0832.3,5.00,0.00,26.1,24.3,00.0,35.0,27.9,13.4,0000.0,0011.00,0005.78,0005.03
2022-10-18 10:13:00,,0832.3,5.00,0.00,26.0,24.3,00.0,35.0,27.8,13.4,0000.0,0011.18,0005.67,0004.97
2022-10-18 10:14:00,,0832.3,5.00,0.00,26.0,24.3,00.0,35.0,27.8,13.4,0000.0,0011.48,0005.61,0004.92
2022-10-18 10:15:00,,0832.3,5.01,0.00,26.0,24.2,00.0,35.0,27.8,13.4,0000.0,0011.19,0005.51,0004.85
2022-10-18 10:16:00,,0832.3,4.99,0.00,26.0,24.2,00.0,35.0,27.8,13.5,0000.0,0011.17,0005.50,0004.81
2022-10-18 10:17:00,,0832.3,4.99,0.00,26.0,24.1,00.0,34.9,27.7,13.6,0000.0,0010.93,0005.42,0004.80
2022-10-18 10:18:00,,0832.3,4.99,0.00,25.9,24.0,00.0,34.9,27.7,13.5,0000.0,0010.82,0005.30,0004.77
2022-10-18 10:19:00,,0832.3,5.00,0.00,25.9,24.0,00.0,34.9,27.6,13.6,0000.0,0010.35,0005.24,0004.74
2022-10-18 10:20:00,,0832.4,5.00,0.00,25.8,24.0,00.0,34.9,27.6,13.7,0000.0,0009.81,0005.23,0004.73
2022-10-18 10:21:00,,0832.4,5.00,0.00,25.8,24.0,00.0,34.8,27.6,13.7,0000.0,0009.74,0005.24,0004.73
2022-10-18 10:22:00,,0832.4,5.00,0.00,25.8,24.0,00.0,34.8,27.6,14.0,0000.0,0009.65,0005.24,0004.75
2022-10-18 10:23:00,,0832.3,5.00,0.00,25.8,23.9,00.0,34.8,27.5,14.2,0000.0,0009.96,0005.35,0004.81
2022-10-18 10:24:00,,0832.3,5.01,0.00,25.7,23.8,00.0,34.8,27.4,14.5,0000.0,0010.38,0005.49,0004.89
2022-10-18 10:25:00,,0832.3,5.02,0.00,25.7,23.7,00.0,34.7,27.4,14.3,0000.0,0010.23,0005.56,0004.96
2022-10-18 10:26:00,,0832.3,5.01,0.00,25.6,23.7,00.0,34.7,27.4,14.4,0000.0,0010.42,0005.62,0005.01
2022-10-18 10:27:00,,0832.3,5.00,0.00,25.6,23.6,00.0,34.7,27.3,14.4,0000.0,0010.39,0005.65,0005.06
2022-10-18 10:28:00,,0832.4,5.00,0.00,25.6,23.5,00.0,34.6,27.3,14.4,0000.0,0010.46,0005.71,0005.10
2022-10-18 10:29:00,,0832.3,5.00,0.00,25.5,23.5,00.0,34.6,27.2,14.4,0000.4,0010.28,0005.75,0005.13
2022-10-18 10:30:00,,0832.3,5.00,0.00,25.5,23.6,00.0,34.6,27.2,14.4,0000.2,0010.57,0005.82,0005.18
2022-10-18 10:31:00,,0832.3,5.00,0.00,25.5,23.6,00.0,34.5,27.2,14.4,0000.1,0010.75,0005.87,0005.22
2022-10-18 10:32:00,,0832.4,4.99,0.00,25.4,23.5,00.0,34.5,27.2,14.5,0000.2,0011.09,0005.94,0005.28
2022-10-18 10:33:00,,0832.4,4.99,0.00,25.4,23.5,00.0,34.5,27.2,14.7,0000.4,0011.35,0006.02,0005.33
2022-10-18 10:34:00,,0832.4,4.99,0.00,25.4,23.5,00.0,34.5,27.1,14.9,0000.4,0011.53,0006.10,0005.37
2022-10-18 10:35:00,,0832.4,5.00,0.00,25.4,23.5,00.0,34.4,27.1,15.1,0001.0,0011.53,0006.19,0005.43
2022-10-18 10:36:00,,0832.4,5.01,0.00,25.4,23.5,00.0,34.4,27.2,15.0,0001.0,0011.84,0006.29,0005.47
2022-10-18 10:37:00,,0832.5,5.01,0.00,25.4,23.5,00.0,34.4,27.2,15.1,0001.2,0012.18,0006.38,0005.53
2022-10-18 10:38:00,,0832.5,4.99,0.00,25.4,23.6,00.0,34.4,27.2,15.2,0001.0,0012.22,0006.44,0005.59
2022-10-18 10:39:00,,0832.5,4.99,0.00,25.4,23.7,00.0,34.4,27.2,15.3,0001.3,0012.60,0006.51,0005.65
2022-10-18 10:40:00,,0832.5,5.00,0.00,25.4,23.7,00.0,34.4,27.3,15.4,0001.9,0013.52,0006.70,0005.78
2022-10-18 10:41:00,,0832.5,5.00,0.00,25.4,23.7,00.0,34.3,27.3,15.5,0002.2,0013.56,0006.85,0005.90
2022-10-18 10:42:00,,0832.5,5.00,0.00,25.4,23.7,00.0,34.3,27.2,15.6,0002.0,0014.19,0007.00,0006.00
2022-10-18 10:43:00,,0832.5,5.00,0.00,25.4,23.6,00.0,34.3,27.2,15.6,0001.5,0014.81,0007.15,0006.12
2022-10-18 10:44:00,,0832.5,5.00,0.00,25.4,23.6,00.0,34.3,27.3,15.6,0000.0,0014.92,0007.26,0006.22
2022-10-18 10:45:00,,0832.5,5.00,0.00,25.4,23.7,00.0,34.3,27.3,15.6,0000.0,0014.99,0007.32,0006.30
2022-10-18 10:46:00,,0832.5,5.00,0.00,25.4,23.8,00.0,34.3,27.3,15.6,0000.0,0015.31,0007.34,0006.34
2022-10-18 10:47:00,,0832.6,5.00,0.00,25.4,23.8,00.0,34.3,27.3,15.5,0000.0,0015.73,0007.39,0006.42
2022-10-18 10:48:00,,0832.6,5.00,0.00,25.4,23.9,00.0,34.3,27.3,15.4,0000.0,0015.52,0007.44,0006.48
2022-10-18 10:49:00,,0832.6,4.99,0.00,25.4,23.9,00.0,34.3,27.3,15.4,0000.7,0015.98,0007.57,0006.55
2022-10-18 10:50:00,,0832.6,5.00,0.00,25.4,23.9,00.0,34.3,27.3,15.3,0002.6,0015.99,0007.64,0006.61
2022-10-18 10:51:00,,0832.6,5.00,0.00,25.4,23.8,00.0,34.3,27.3,15.2,0002.3,0015.80,0007.62,0006.62
2022-10-18 10:52:00,,0832.6,5.00,0.00,25.4,23.8,00.0,34.3,27.3,15.2,0002.0,0016.53,0007.64,0006.62
2022-10-18 10:53:00,,0832.6,5.00,0.00,25.4,23.8,00.0,34.3,27.3,15.1,0002.5,0016.11,0007.62,0006.63
2022-10-18 10:54:00,,0832.6,4.99,0.00,25.4,23.8,00.0,34.3,27.3,15.2,0002.7,0015.86,0007.59,0006.61
2022-10-18 10:55:00,,0832.7,4.98,0.00,25.4,23.8,00.0,34.2,27.3,15.1,0002.8,0016.82,0007.57,0006.59
2022-10-18 10:56:00,,0832.6,5.00,0.00,25.4,23.8,00.0,34.2,27.3,15.1,0002.5,0017.81,0007.54,0006.56
2022-10-18 10:57:00,,0832.7,5.01,0.00,25.4,23.9,00.0,34.2,27.3,15.1,0002.3,0017.41,0007.52,0006.54
2022-10-18 10:58:00,,0832.6,4.99,0.00,25.4,23.9,00.0,34.2,27.3,15.0,0002.8,0016.73,0007.48,0006.51
2022-10-18 10:59:00,,0832.6,4.99,0.00,25.4,23.8,00.0,34.2,27.3,15.0,0002.7,0017.40,0007.47,0006.49
